Flag for Argentina Weather past 2 weeks in Jujuy, Jujuy, Argentina

Now
81 °F

Partly sunny.


Feels Like: 83 °F
Forecast: N/A
Wind: No wind

Location: Jujuy Aerodrome

Current Time: Jan 29, 2015 at 7:54:43 PM

Latest Report: Jan 29, 2015 at 7:00 PM


Visibility: N/A

Pressure: 30.01 "Hg

Humidity: 62%

Dew point: 66 °F

Location of JujuyLocation

Historic Weather in Jujuy — Graph

°F

Jujuy temperature yesterday

Maximum temperature yesterday: 93 °F (at 4:00 PM)
Minimum temperature yesterday: 66 °F (at 6:00 AM)
Average temperature yesterday: 77 °F

Past Weeks' High & Low Weather Summary

 TemperatureHumidityPressure
High93 °F (Jan 28, 4:00 PM)100% (Jan 15, 1:00 AM)30.27 "Hg (Jan 15, 1:00 AM)
Low63 °F (Jan 21, 7:00 AM)32% (Jan 25, 4:00 PM)29.74 "Hg (Jan 26, 4:00 PM)
Average75 °F75%29.98 "Hg
* Reported Jan 14 7:00 PM — Jan 29 7:00 PM, Jujuy, Weather by CustomWeather, © 2014

Note: Actual official high and low records may vary slightly from our data, if they occured in-between our weather recording intervals... More about our weather records

Advertising

Jujuy weather history for previous 24 hours

 ConditionsComfort  
Time TempWeatherWind HumidityBarometerVisibility
7:00 PM
Jan 29
81 °FPartly sunny.No wind62%30.01 "HgN/A
6:00 PM82 °FPartly sunny.5 mph51%30.01 "HgN/A
5:00 PM82 °FPartly sunny.5 mph48%30.04 "HgN/A
4:00 PM81 °FPassing clouds.7 mph54%30.04 "HgN/A
3:00 PM81 °FPassing clouds.5 mph62%30.07 "HgN/A
2:00 PM75 °FPartly sunny.3 mph74%30.09 "HgN/A
1:00 PM73 °FPartly sunny.8 mph78%30.15 "HgN/A
12:00 PM68 °FBroken clouds.7 mph94%30.18 "HgN/A
11:00 AM68 °FMore clouds than sun.7 mph94%30.21 "HgN/A
10:00 AM68 °FLight rain. Overcast.3 mph100%30.18 "Hg5 mi
9:00 AM70 °FRain. More clouds than sun.6 mph88%30.15 "Hg4 mi
8:45 AM70 °FLight rain. More clouds than sun.5 mph83%30.15 "Hg5 mi
8:00 AM70 °FScattered showers. Overcast.5 mph83%30.12 "Hg5 mi
7:00 AM68 °FMore clouds than sun.6 mph88%30.09 "Hg5 mi
3:00 AM72 °FThundershowers. Passing clouds.6 mph78%29.98 "HgN/A
2:00 AM68 °FPassing clouds.7 mph88%29.98 "HgN/A
1:00 AM68 °FPassing clouds.9 mph83%29.95 "HgN/A
12:00 AM70 °FPartly cloudy.8 mph78%29.95 "HgN/A
11:00 PM
Jan 28
70 °FThundershowers. Partly cloudy.13 mph78%29.95 "HgN/A
10:00 PM70 °FThundershowers. Mostly cloudy.12 mph78%29.95 "HgN/A
9:00 PM66 °FThundershowers. Mostly cloudy.13 mph100%29.92 "HgN/A
Weather by CustomWeather, © 2014

See weather overviewHow to use our weather pages